{"data":{"norad_id":59701,"epoch":"2026-05-24T22:41:15.890784Z","epoch_age_seconds":73078,"freshness":"FRESH","line1":"1 59701U 24086V   26144.94532281  .00000961  00000+0  44442-4 0  9990","line2":"2 59701  43.0024 349.3138 0000862 289.2856  70.7902 15.27578837115773","mean_motion":15.27578837,"eccentricity":8.62e-5,"inclination_deg":43.0024,"raan_deg":349.3138,"arg_perigee_deg":289.2856,"mean_anomaly_deg":70.7902,"bstar":4.4442e-5,"rev_number":11577,"period_min":94.266820482274,"perigee_km":482.46114394058,"apogee_km":483.64401302391,"semimajor_km":6861.1895784822,"source":"CELESTRAK","updated_at":"2026-05-25T13:38:19.044098Z"}}